Location: Newark
(51.0967°N, 24.7917°E)
Time: 01:30:59
(UTC+00:00)

STARLINK-1286 - Pass Details

Date: 02 April 2020
Orbit: 554 x 555 km, 53.0° (Epoch: 05 June)

Event Time Altitude Azimuth Distance (km) Brightness Sun altitude
Exits shadow 02:02:00 35° 257° (WSW) 908 4.2 -17.2°
Maximum altitude 02:03:41 85° 341° (NNW) 568 3.6 -17.0°
Drops below altitude 10° 02:07:55 10° 73° (ENE) 1,852 7.5 -16.4°
Sets 02:10:10 0° 74° (ENE) 2,748 8.7 -16.1°
